Location: Michelbach Markt
(48.1000°N, 15.7500°E)
Time: 19:57:41
(UTC+01:00)

X-37B - Pass Details

Date: 03 December 2023
Orbit: 277 x 277 km, 45.0° (Epoch: 01 November)

Event Time Altitude Azimuth Distance (km) Brightness Sun altitude
Rises 18:03:10 0° 252° (WSW) 1,913 5.8 -18.9°
Reaches altitude 10° 18:05:09 10° 243° (WSW) 1,101 4.0 -19.3°
Enters shadow 18:06:44 28° 214° (SW) 557 1.8 -19.5°
